Find Starlink 33723

NORAD ID: 63593 Int'l Des: 2025-076 Owner: SPXS Country: US Constellation: starlink operational
LEOCIRCULAR

Live-Position

3D-Globus wird geladen...

Über Starlink 33723

Beschreibung wird geladen...

Nächste Überflüge

Passes for default location (London). Set your location on the main map for personalized predictions.

Höhenverlauf

Loading altitude history...

Zweizeiliger Elementsatz

1 63593U 25076AA 26106.42696892 .00011400 00000-0 42292-3 0 9995
2 63593 43.0002 108.4110 0001234 272.8712 87.1998 15.27596849 57607
Epoch: 16. Apr. 2026 • Age: 25 hours

Aktueller Status

Höhe 482.9 km
Geschwindigkeit 7.63 km/s
Subsatellitenpunkt 22.80°N, 110.91°E
Startdatum 14. Apr. 2025
Alter 1 years
Typ internet

Technische Details

Klassifizierung Payload
Masse 575.00 kg
Trockenmasse 530.00 kg
Gesamtmasse 575.00 kg
Länge 0.30 m
Durchmesser 4.10 m
Spannweite 29.00 m
Form Box + pan
Hersteller SPXS
Bus-Typ Starlink V2MO
Phasenstatus In Orbit
Besitzer/Staat SPXS/US

Most Searched